Location: Unspecified
(44.4377°N, 88.0525°W)
Time: 20:23:45
(UTC-05:00)

ISS - Pass Details

Date: 29 March 2018
Orbit: 402 x 408 km, 51.6° (Epoch: 20 July)

Event Time Altitude Azimuth Distance (km) Brightness Sun altitude
Rises 20:18:52 0° 264° (W) 2,347 1.4 -11.8°
Reaches altitude 10° 20:21:04 10° 274° (W) 1,488 0.4 -12.2°
Maximum altitude 20:24:10 34° 342° (NNW) 705 -2.3 -12.7°
Drops below altitude 10° 20:27:16 10° 50° (NE) 1,496 -1.3 -13.2°
Enters shadow 20:27:28 - 51° (NE) 1,570 -1.2 -13.3°
